Total_Precipitation_Accumulation
1.97 1.79 2.27 1.91 1.76 1.15 1.36 1.65 1.49 1.24 1.41 1.23 1.32 0.96 1.11 0.79 0.62 0.59 1.20 0.42 0.54 0.73 0.60 0.87 0.90 0.93 0.63 0.50 0.49 0.47 0.95 0.73 0.68 0.58 0.77 1.00 0.65 0.37 0.40 0.71 0.70 0.54 0.45 0.44 0.42 0.45 0.29 0.33 0.20 0.26 0.18 0.18 0.15 0.13 0.09 0.11 0.19 0.34 0.37 0.56 0.54 0.60 0.81 1.01 0.72 0.39 0.52 0.32 0.31 0.62 0.99 0.71 0.84 0.60 0.60 0.93 1.33 0.57 0.41 0.61 0.70 0.38 0.64 0.45 0.72
2.27 3.15 2.40 2.68 2.41 1.73 1.33 1.61 1.99 1.93 1.76 1.63 1.21 1.04 0.91 0.89 0.78 0.80 0.65 0.94 1.12 0.71 0.43 0.26 0.41 0.48 0.66 0.60 0.61 1.15 1.02 0.82 0.98 0.68 0.79 1.00 0.86 0.52 0.44 0.61 0.56 0.37 0.37 0.32 0.35 0.34 0.28 0.17 0.24 0.17 0.21 0.25 0.18 0.15 0.19 0.19 0.15 0.32 0.21 0.37 0.36 0.54 0.53 0.47 0.31 0.66 0.62 0.46 0.70 0.64 0.63 0.60 0.70 0.58 0.92 0.95 1.45 0.69 0.87 0.79 0.82 1.25 0.88 0.66 0.74
2.89 3.50 2.76 2.43 2.41 2.65 3.52 2.60 2.15 2.31 1.96 1.33 1.01 1.07 1.00 1.15 0.80 0.83 1.08 0.98 0.90 0.52 0.47 0.48 0.26 0.45 0.67 1.39 0.80 0.55 0.77 1.05 0.78 1.10 0.86 0.80 0.63 0.41 0.71 0.70 0.63 0.35 0.37 0.51 0.36 0.60 0.61 0.53 0.26 0.31 0.34 0.38 0.42 0.23 0.31 0.35 0.29 0.20 0.38 0.39 0.36 0.30 0.67 0.65 0.69 0.64 0.48 0.52 0.46 0.66 0.66 0.89 0.98 1.20 1.47 1.24 1.26 1.06 0.89 0.57 0.85 0.91 0.91 0.67 1.18
3.39 2.98 2.99 2.12 2.32 2.05 2.23 2.07 2.34 3.26 2.37 1.82 1.53 1.65 1.27 1.44 1.17 1.13 1.49 1.00 0.51 0.28 0.43 0.54 0.65 1.12 1.21 0.80 0.63 0.81 1.32 1.06 1.27 1.02 0.78 0.95 0.80 0.49 0.87 0.89 0.54 0.50 0.32 0.48 0.71 1.10 1.07 0.68 0.44 0.49 0.60 0.63 0.53 0.43 0.53 0.32 0.46 0.34 0.34 0.28 0.20 0.28 0.49 0.36 1.07 0.62 0.53 0.61 0.88 0.51 0.83 0.82 1.27 1.25 1.43 1.26 1.68 1.52 1.18 0.84 1.13 0.79 0.76 0.67 0.58
2.93 3.13 4.13 4.27 4.09 3.15 3.04 3.15 3.35 2.95 1.84 1.60 1.47 1.89 1.43 1.69 1.40 0.97 0.78 0.85 1.68 1.16 1.10 1.31 1.38 0.89 0.61 0.57 1.00 0.79 0.73 0.97 0.81 1.27 1.20 0.89 0.91 1.25 1.26 0.95 0.63 0.35 0.48 0.48 0.67 1.02 0.95 0.72 0.60 0.81 0.61 0.56 0.40 0.47 0.45 0.41 0.51 0.62 0.46 0.28 0.30 0.33 0.31 0.70 0.69 0.91 0.82 0.70 0.65 0.62 0.59 0.82 1.60 1.76 1.87 1.34 1.34 1.17 1.08 0.74 1.40 0.80 0.64 0.68 1.02
3.67 3.32 2.81 2.72 2.97 3.10 2.61 2.48 2.19 1.88 1.61 1.34 1.37 1.71 1.63 1.90 1.46 1.34 1.10 1.16 1.31 1.23 1.74 1.71 1.57 1.29 0.91 1.16 1.26 1.20 1.26 1.29 1.14 1.54 1.31 1.56 1.34 1.59 1.38 1.66 0.63 0.87 0.60 1.20 1.42 2.03 1.62 0.82 1.12 1.72 0.92 0.75 0.40 0.48 0.59 1.14 1.07 0.81 0.57 0.55 0.60 0.62 0.68 0.62 0.64 0.77 0.61 0.61 0.87 0.72 1.11 0.80 1.68 1.82 1.90 1.31 0.97 0.86 0.69 0.78 0.79 0.62 0.32 0.39 0.80
2.72 2.83 2.23 2.00 2.75 3.62 3.22 2.68 2.81 2.08 1.53 2.05 2.15 2.44 1.78 1.75 1.85 1.69 1.74 1.57 1.46 1.48 1.88 1.56 1.36 1.28 1.25 1.12 1.21 1.09 1.23 1.50 2.06 2.78 2.52 1.89 2.37 1.52 1.52 1.49 1.39 1.13 1.51 1.66 1.45 2.31 2.18 1.81 1.50 1.38 1.20 0.88 0.85 0.99 0.78 1.10 0.94 0.75 0.43 0.55 0.48 0.55 0.58 0.74 0.58 0.79 1.15 0.71 0.76 1.11 1.00 1.49 1.85 2.28 2.57 1.42 1.35 1.11 1.09 0.84 1.06 0.95 0.91 0.45 0.71
3.46 2.35 1.43 1.10 2.10 3.69 2.41 2.75 3.54 2.79 2.68 3.74 2.76 2.15 2.76 2.04 2.24 2.30 2.87 2.59 1.75 1.45 1.38 1.20 1.16 1.28 1.39 1.90 1.70 1.70 2.28 1.86 1.78 2.35 2.27 2.43 2.14 1.91 1.79 1.40 2.43 1.88 1.18 1.34 1.37 1.62 2.31 2.14 2.32 1.74 1.79 1.46 1.10 0.93 1.08 1.09 0.87 0.59 0.42 0.70 0.70 0.65 0.62 0.45 0.80 0.95 1.15 1.00 0.88 1.40 1.39 1.91 2.66 2.51 2.31 1.86 1.42 1.19 0.90 1.32 1.10 1.27 0.88 1.02 0.94
4.34 2.87 2.48 2.23 2.41 3.35 4.00 3.97 3.40 3.68 3.06 3.75 3.60 2.66 2.90 3.71 3.05 3.46 2.32 2.34 2.71 2.01 1.93 1.50 1.35 1.09 0.89 0.98 1.43 1.17 1.72 1.48 1.44 2.08 1.71 1.80 2.68 2.05 1.34 1.84 1.81 1.63 1.80 1.28 1.41 2.60 3.16 2.28 1.88 1.65 1.55 1.75 1.26 1.15 0.77 0.85 1.18 1.12 1.29 1.09 1.31 0.86 0.59 1.17 0.78 0.77 1.13 1.11 1.44 1.44 1.82 1.89 2.08 2.28 2.03 1.80 1.19 1.00 2.38 1.75 1.13 1.02 1.26 1.35 1.60
4.18 3.41 2.76 2.98 2.52 3.50 3.80 3.67 3.92 4.24 3.76 4.26 4.79 3.36 3.16 3.98 4.30 3.26 2.33 2.28 2.04 2.02 1.74 1.56 1.54 1.21 1.55 1.71 1.29 1.57 1.48 1.59 1.15 1.48 1.23 1.70 2.02 1.85 1.78 1.52 1.93 2.09 2.06 1.81 1.85 2.57 2.29 2.25 2.62 1.39 1.89 1.44 1.37 1.10 0.77 0.88 1.02 1.17 1.09 1.06 1.20 2.02 1.15 1.24 1.03 1.04 1.20 1.44 1.46 1.46 1.68 1.92 1.78 2.98 2.04 2.14 1.93 1.85 1.88 2.15 1.48 1.92 1.54 1.54 1.50
4.20 3.14 2.78 4.35 4.59 4.22 4.81 4.15 3.64 4.20 3.93 3.85 4.58 3.95 3.26 2.96 2.86 2.74 1.92 1.50 1.58 1.57 1.79 1.66 1.30 2.22 1.57 1.90 2.12 2.07 1.69 1.49 0.94 1.27 1.17 1.20 2.08 2.43 1.65 1.69 1.92 2.07 1.41 1.27 2.27 2.18 1.69 1.97 1.38 1.20 1.55 1.72 1.61 1.56 1.16 2.22 2.16 1.64 1.53 1.28 1.60 2.27 2.80 1.82 1.34 1.42 1.28 1.79 1.50 1.70 1.27 1.55 1.79 1.72 1.64 1.54 1.32 1.91 2.30 1.67 2.12 2.38 2.03 1.75 1.54
5.39 4.58 4.48 5.17 4.65 3.95 3.48 4.39 3.78 3.23 3.65 4.89 4.39 3.57 3.25 2.46 2.40 2.49 1.62 1.66 1.44 1.37 1.38 1.20 0.98 1.34 1.40 2.12 1.96 1.70 1.61 1.46 1.50 1.59 1.18 1.17 1.01 1.64 1.48 1.24 1.78 2.04 1.57 1.37 1.41 1.63 2.02 1.75 2.10 2.59 2.26 2.93 2.36 1.84 1.44 1.50 1.15 1.03 1.42 1.40 1.78 2.56 2.36 2.37 2.53 2.32 2.19 1.95 2.23 2.05 1.50 1.72 1.98 2.48 2.01 1.46 1.38 1.43 1.71 1.51 1.89 1.56 1.77 2.92 1.81
4.91 5.45 5.57 4.90 5.14 4.05 4.16 4.88 4.02 3.34 4.09 4.94 4.64 4.42 2.95 2.83 2.58 2.47 1.66 1.82 1.87 1.33 1.22 1.47 1.29 1.22 1.34 1.70 1.42 1.03 1.17 2.24 1.48 0.91 0.63 0.68 0.53 0.89 1.48 1.80 1.56 1.40 1.63 1.58 1.68 1.64 2.19 2.09 2.35 2.43 2.61 2.33 2.59 2.18 1.66 1.25 1.50 1.30 1.33 1.44 1.57 1.54 1.78 1.76 1.74 2.33 2.49 2.51 1.96 1.66 1.35 1.88 1.82 2.21 1.76 1.73 2.14 1.25 2.04 2.67 2.57 2.32 2.15 1.91 2.11
6.46 6.48 5.65 5.27 4.38 3.17 3.87 3.66 3.51 3.68 4.07 5.11 4.75 3.04 3.18 2.19 2.39 3.56 2.34 1.84 1.66 1.40 1.50 1.53 1.12 1.26 0.98 1.11 1.28 1.73 1.69 1.59 0.69 0.39 0.28 0.28 0.29 0.50 1.19 1.72 1.78 1.28 1.74 2.50 2.71 2.44 3.14 2.59 2.80 2.53 1.89 1.81 1.81 2.17 2.25 1.94 2.18 2.10 2.15 2.41 2.32 1.81 1.61 1.30 1.27 1.63 2.01 2.34 2.15 2.32 2.41 2.96 3.00 1.87 1.91 2.70 2.24 1.84 1.93 2.20 2.95 2.94 3.24 1.94 1.94
6.99 6.14 5.73 5.71 4.97 3.83 4.30 4.24 4.24 4.47 5.05 4.68 3.73 4.39 3.14 3.55 3.90 4.41 3.99 3.80 2.70 2.04 1.70 1.41 1.50 1.32 1.40 1.69 1.66 1.46 1.87 1.20 0.48 0.24 0.19 0.21 0.22 0.33 0.60 1.45 1.66 1.30 1.56 1.60 2.02 2.67 2.98 3.43 2.95 2.04 1.52 1.69 1.36 1.78 2.21 3.08 2.64 2.60 2.81 3.03 1.93 2.56 2.58 2.43 2.16 2.51 2.82 2.50 2.01 2.62 2.08 2.62 1.84 1.52 2.30 2.88 2.66 3.55 3.53 3.36 4.50 3.87 2.18 2.37 1.87
5.23 4.81 6.08 6.02 4.41 3.99 3.83 4.20 4.98 5.94 5.89 5.46 4.49 4.58 4.36 4.21 4.71 4.68 3.80 3.23 2.78 2.03 1.93 1.58 1.56 1.83 1.87 1.49 1.31 1.39 1.32 0.97 0.32 0.27 0.24 0.22 0.23 0.48 0.87 1.13 1.09 1.05 1.58 2.44 2.41 3.12 3.08 3.17 3.04 2.24 2.33 2.13 2.33 1.89 2.70 3.22 3.06 3.68 3.00 2.76 2.65 2.60 2.63 2.23 2.40 2.69 2.26 2.62 2.14 2.99 2.49 1.94 1.73 2.42 3.02 2.87 2.77 4.08 4.60 4.58 2.85 2.77 3.23 2.34 1.99
3.90 4.63 5.02 4.92 4.73 3.94 4.16 5.14 4.66 4.62 4.66 5.34 5.30 5.22 5.38 5.63 4.91 4.80 3.61 3.09 2.67 1.90 2.51 2.04 1.50 2.32 1.92 1.59 1.52 1.74 1.45 1.06 0.52 0.60 0.54 0.74 1.34 0.75 0.70 1.15 1.30 1.44 1.78 2.13 2.13 3.18 3.12 2.69 2.80 2.20 1.81 2.16 2.51 2.12 2.78 3.39 3.30 3.00 3.41 2.47 3.02 3.00 4.37 2.94 1.88 1.22 1.60 1.88 3.14 1.67 2.71 3.10 2.62 2.42 3.12 2.75 3.56 5.66 7.68 4.83 1.69 2.42 4.73 3.28 2.87
4.73 4.93 4.92 4.75 6.10 5.35 5.46 5.34 5.72 5.72 4.81 4.77 4.52 5.29 5.63 5.42 5.34 5.35 4.70 4.58 5.36 5.17 3.89 3.11 4.15 3.95 3.07 1.86 1.50 1.74 1.49 1.42 1.34 1.27 1.67 0.99 1.24 0.72 1.20 1.85 2.00 2.15 2.38 2.94 2.90 2.59 2.33 2.82 1.92 1.91 2.58 2.14 1.17 1.82 2.06 2.46 2.86 3.54 3.25 2.98 2.82 3.06 3.05 2.87 2.47 2.26 1.28 0.88 1.11 1.33 1.45 1.50 1.51 1.28 1.65 3.08 6.91 5.84 5.71 2.40 1.29 3.80 4.63 3.91 3.40
4.88 4.98 4.37 4.26 4.63 4.26 4.33 4.84 5.04 5.59 5.48 4.83 5.52 6.05 5.32 5.00 4.51 4.56 5.49 4.79 5.63 6.18 4.68 4.43 6.07 5.08 4.18 3.24 1.73 1.70 1.25 1.40 1.16 1.22 1.93 1.68 1.62 1.88 1.86 2.39 2.61 2.93 2.77 3.68 4.19 2.45 3.19 2.76 2.33 2.40 2.24 1.70 1.60 2.51 3.61 3.04 2.46 2.55 3.52 3.97 3.29 2.67 2.45 2.73 3.01 3.16 2.66 1.36 1.14 0.92 1.09 0.99 0.86 0.98 1.68 3.13 2.26 3.28 3.97 4.25 4.72 4.02 4.25 3.61 4.46
3.33 3.27 3.81 4.06 4.15 4.10 4.19 4.74 3.98 4.86 4.61 5.13 6.51 6.07 6.51 6.81 6.03 4.86 5.30 6.59 6.75 4.82 5.28 6.27 5.88 4.46 3.31 2.75 2.81 2.37 2.18 1.98 2.49 1.35 1.58 1.99 1.42 3.34 4.31 2.90 2.40 2.89 3.60 3.21 3.19 3.02 3.30 2.46 2.11 2.10 1.79 1.91 1.89 1.89 2.34 1.77 2.55 3.62 4.11 3.37 2.34 2.94 2.77 3.03 3.34 2.92 2.09 2.48 2.34 2.12 2.31 1.56 2.02 1.92 2.33 2.40 2.72 2.92 2.85 3.78 4.99 4.99 4.41 5.25 4.14
3.78 3.58 3.07 2.97 3.23 3.26 3.63 4.37 3.62 3.21 4.10 4.56 4.01 4.58 5.04 5.15 5.86 6.05 6.89 6.97 7.02 6.51 5.73 5.63 5.57 4.40 4.40 4.23 3.92 5.23 5.18 4.34 3.91 2.27 1.94 2.31 2.18 3.53 5.45 4.69 3.61 2.71 2.49 3.45 2.69 3.29 3.36 3.20 2.98 2.52 1.98 1.63 1.54 1.58 2.23 3.01 3.29 2.88 2.25 2.39 1.91 2.65 3.68 3.37 3.31 3.82 2.36 1.74 2.23 2.30 2.25 2.38 2.64 2.25 2.66 2.19 3.24 2.69 2.47 3.96 4.60 5.81 6.33 7.44 5.36
2.81 2.54 2.79 2.47 2.92 4.01 5.03 5.41 5.03 4.52 4.47 4.44 3.68 3.31 3.69 4.17 4.66 4.87 5.62 6.47 7.79 8.82 8.40 6.81 6.31 5.30 5.39 4.81 4.46 4.42 5.23 4.20 5.55 4.25 3.75 3.33 3.29 3.36 4.29 3.57 2.87 2.91 3.56 3.16 3.34 3.06 3.09 4.06 4.79 3.23 3.24 3.25 2.76 1.47 1.65 2.54 2.97 3.02 1.42 1.15 1.68 3.50 4.91 4.98 3.98 3.59 4.21 3.86 2.08 2.55 2.14 3.25 2.29 2.30 1.94 2.02 2.12 2.78 3.36 3.58 4.77 5.52 6.26 4.15 3.60
1.50 2.03 2.20 3.25 3.43 3.06 3.07 3.65 5.53 6.13 6.22 4.16 3.41 4.29 3.75 3.39 3.69 4.77 4.78 5.66 6.70 6.32 4.80 4.74 5.24 5.74 6.02 5.76 5.67 5.31 5.35 5.84 3.65 4.16 2.46 2.69 2.31 2.71 2.30 3.11 4.12 4.55 4.87 5.68 4.38 4.11 4.68 4.98 4.65 4.64 4.95 3.90 3.40 2.43 1.85 2.08 2.73 2.17 1.35 1.53 2.09 3.20 5.70 8.77 6.17 4.83 2.92 2.58 2.60 1.98 1.89 1.94 2.48 3.44 3.44 2.58 3.50 3.84 3.46 3.16 4.44 6.45 4.43 3.57 3.38
0.54 1.10 1.57 1.68 2.26 2.10 2.19 2.65 3.77 4.28 3.11 2.84 2.38 2.27 2.53 3.06 3.83 4.35 3.89 4.07 4.90 5.60 6.85 5.84 5.52 5.61 5.56 5.79 6.26 6.20 6.65 6.66 6.33 5.33 4.45 3.76 3.43 2.74 3.02 3.96 4.06 6.25 4.53 3.96 4.33 4.51 5.03 5.20 5.34 5.09 5.43 5.04 3.70 3.15 3.44 3.54 3.64 2.69 2.56 2.25 2.93 3.85 5.70 6.31 8.59 7.56 4.51 2.79 2.23 1.95 2.02 2.16 2.30 2.09 2.14 2.30 2.60 3.30 3.98 4.50 4.98 4.91 3.92 3.22 3.28
0.43 0.93 1.33 1.51 1.35 1.22 1.39 2.40 4.03 2.89 2.13 2.02 2.35 2.14 2.02 2.23 2.63 2.54 2.13 2.15 2.65 3.19 3.93 4.50 4.88 5.47 6.24 6.58 8.11 8.20 7.33 6.43 7.18 6.42 5.17 4.69 4.57 4.27 3.59 3.01 3.53 4.30 3.96 3.90 3.25 3.33 3.30 3.58 4.45 4.93 3.82 3.59 3.56 3.77 4.13 4.11 4.05 3.08 3.03 2.99 3.40 6.04 6.02 6.55 6.32 7.89 4.84 2.93 2.59 2.41 2.13 2.17 1.92 1.91 2.09 2.44 2.46 3.03 2.85 3.07 3.59 3.03 2.49 2.45 2.29
0.42 0.81 0.67 0.90 1.22 1.06 1.17 0.94 1.15 1.76 1.36 1.32 1.42 1.36 1.49 1.84 1.65 1.96 1.78 1.58 1.59 1.64 1.88 2.39 2.82 3.56 4.21 4.15 3.96 4.31 4.81 5.56 5.10 6.11 6.94 6.01 6.27 6.06 5.33 4.83 5.96 6.44 5.28 4.80 3.97 3.89 3.85 4.53 4.29 3.92 3.69 3.81 4.62 4.35 5.27 5.22 3.97 3.87 3.54 3.89 3.35 3.89 5.45 6.15 5.06 5.90 4.65 2.40 2.35 2.20 2.44 2.76 2.07 2.05 2.24 2.17 2.55 2.26 2.44 2.83 2.41 2.19 1.86 1.47 1.33
0.19 0.45 0.76 0.50 0.65 0.67 0.55 0.53 0.35 0.33 0.60 0.77 0.63 0.87 1.27 1.06 1.09 1.42 1.79 1.41 1.66 2.20 2.28 2.28 2.33 2.22 2.28 2.63 3.17 3.19 3.47 3.22 2.76 3.22 4.38 4.91 4.48 4.29 3.83 4.95 5.39 6.32 7.19 6.86 5.74 5.87 5.14 5.45 4.93 4.13 4.22 4.25 3.85 3.88 4.18 4.09 3.95 3.54 3.71 3.64 3.04 3.05 3.37 3.52 3.09 3.63 2.62 2.00 1.82 1.73 2.55 2.66 2.75 2.67 2.56 2.76 3.04 2.84 2.70 2.55 2.19 2.03 2.22 1.49 1.22
0.63 0.57 0.74 1.00 1.32 1.47 1.59 1.31 0.59 0.29 0.32 0.43 0.73 0.70 1.05 1.59 1.31 1.09 0.77 0.84 1.06 0.88 0.91 0.95 0.85 0.99 1.33 2.20 3.02 3.25 3.06 2.35 2.40 2.61 2.84 2.76 2.80 3.43 3.56 3.48 3.43 3.85 3.92 3.66 4.01 4.39 5.80 5.26 5.27 5.53 4.76 4.30 4.50 3.79 3.47 2.87 2.60 2.38 2.60 3.31 3.27 2.57 2.30 1.87 2.27 2.83 2.02 2.21 2.40 2.69 3.08 2.90 2.73 2.43 2.78 2.79 2.48 1.97 1.61 1.73 1.64 1.74 2.26 1.87 1.96
1.14 1.07 1.13 1.38 1.48 1.19 0.78 0.51 0.64 0.80 0.73 1.46 1.84 1.61 0.95 0.78 0.82 0.94 0.66 0.51 0.49 0.56 0.57 0.72 0.83 0.95 1.56 2.00 2.08 1.17 1.25 1.49 1.75 1.62 1.87 2.08 2.25 2.04 1.72 1.97 1.83 1.84 1.99 2.12 2.07 2.62 4.23 4.60 4.18 3.10 3.45 3.10 3.30 2.64 2.46 2.50 2.36 2.16 2.31 2.71 2.06 2.56 2.22 2.08 2.28 2.25 1.92 2.78 2.19 2.62 2.74 2.44 2.38 2.50 2.67 2.42 1.55 1.29 1.24 1.37 1.39 1.52 1.51 2.07 1.55
0.65 0.57 0.61 0.76 0.74 0.62 0.53 0.50 0.50 0.54 0.65 1.03 1.15 0.65 0.42 0.54 0.36 0.40 0.46 0.31 0.20 0.16 0.14 0.34 0.42 0.49 0.65 0.50 0.59 0.79 0.67 0.98 0.82 0.60 0.50 0.73 0.79 1.00 0.94 1.02 0.94 1.17 1.17 1.79 2.35 3.76 2.85 2.23 2.09 1.94 1.71 1.69 2.04 2.09 2.41 2.54 2.31 2.01 1.68 1.70 1.67 1.82 2.06 2.14 2.29 2.64 1.89 1.95 2.22 2.82 2.91 2.80 2.77 2.59 2.28 1.92 1.35 1.19 1.16 1.44 1.68 1.60 2.06 1.85 1.88
1.04 0.86 0.67 0.65 0.72 0.73 0.60 0.45 0.47 0.51 0.66 0.30 0.41 0.58 0.43 0.28 0.29 0.14 0.14 0.17 0.25 0.53 0.80 0.91 0.83 0.94 0.93 0.96 0.91 0.80 0.61 0.89 0.64 0.26 0.42 0.61 0.46 0.54 0.83 0.86 1.67 1.25 2.39 3.97 2.54 1.61 1.50 1.32 1.21 1.35 1.49 1.52 1.16 1.08 1.48 1.67 1.68 1.64 1.33 1.32 1.49 1.49 1.34 1.58 1.37 1.83 1.78 1.69 2.30 2.54 2.60 2.40 2.02 1.68 1.89 1.91 1.81 1.67 1.65 1.55 1.46 1.55 1.52 1.68 1.79
2.11 1.89 1.80 1.65 1.12 1.13 1.52 1.53 1.36 1.05 1.32 1.61 1.47 1.64 1.51 1.21 0.74 0.60 0.82 1.14 0.78 0.42 0.42 0.74 0.76 1.47 0.75 0.67 0.85 1.39 1.21 1.43 1.63 1.42 1.61 1.27 1.08 0.63 0.31 0.92 2.13 2.23 2.50 2.37 1.59 0.91 1.01 0.87 0.69 0.91 1.04 1.23 1.35 1.33 1.49 2.00 1.39 1.49 1.42 1.21 1.02 0.93 0.90 1.05 1.33 2.19 1.95 1.72 2.43 2.43 1.93 1.46 1.52 1.81 2.34 2.48 2.44 2.71 2.26 1.63 1.90 1.73 1.43 1.47 1.73
1.91 1.69 1.86 1.68 1.94 1.84 1.61 1.60 1.75 2.38 2.08 1.94 1.87 1.72 1.14 0.93 0.84 1.01 1.76 1.27 1.46 1.44 1.33 1.37 1.29 1.49 1.72 1.24 1.02 1.10 0.94 0.63 0.54 0.29 0.28 0.15 0.15 0.17 0.33 1.17 2.01 2.38 2.55 2.39 1.00 0.98 1.46 1.44 1.41 1.18 1.79 1.31 1.41 1.54 1.15 0.83 0.88 0.90 0.68 1.01 1.02 1.11 1.15 1.41 2.19 2.00 1.63 1.49 1.05 1.61 1.79 2.27 2.41 2.70 2.45 1.87 1.62 1.67 1.77 1.68 1.78 1.69 1.69 2.06 1.75
2.73 2.76 2.57 1.95 2.34 2.72 2.97 2.68 2.41 2.06 1.65 2.40 2.02 1.51 1.72 1.95 1.39 0.98 0.73 1.26 1.50 1.24 0.95 1.34 1.36 1.65 1.66 1.11 0.76 1.77 1.10 1.00 1.47 2.42 2.66 2.41 2.27 2.07 1.78 1.84 2.66 4.14 4.12 3.75 3.58 3.19 2.95 2.67 2.53 1.83 1.70 1.35 1.51 1.73 1.10 0.61 0.36 0.51 0.44 0.66 0.64 0.84 1.52 2.57 2.47 1.97 1.60 1.49 1.54 1.74 2.30 2.57 3.21 3.99 3.06 2.03 1.79 1.63 1.46 1.41 1.38 1.80 1.91 1.56 1.61
2.31 2.05 1.81 1.90 2.41 2.31 2.04 2.05 2.44 3.47 3.58 2.79 2.25 2.57 2.22 1.84 2.95 2.97 1.47 0.95 1.33 1.99 1.86 1.32 1.15 0.52 0.67 0.71 1.07 1.31 0.87 0.90 0.74 0.33 0.32 0.37 0.53 0.60 1.06 1.71 2.06 1.80 2.53 2.52 3.06 3.44 2.92 2.37 2.08 1.82 1.59 0.79 0.48 0.39 0.45 0.83 0.97 0.93 0.83 1.49 1.88 1.72 2.14 1.89 2.57 3.26 2.72 2.65 2.56 2.79 2.56 2.51 2.35 2.34 3.09 3.03 2.23 2.01 1.90 2.03 1.99 1.84 1.73 1.97 1.72
1.56 1.60 1.97 1.96 2.23 2.38 2.42 2.78 2.74 2.82 3.29 2.88 2.55 3.85 4.37 3.23 2.41 2.44 2.31 2.30 3.05 2.29 2.04 2.05 2.20 1.65 1.65 1.54 1.41 1.27 1.63 1.78 1.52 0.64 1.22 1.45 1.25 1.68 2.83 3.60 3.58 3.75 2.96 1.79 1.79 1.40 0.90 0.72 0.65 0.65 0.74 1.13 1.25 1.67 1.57 2.01 1.62 1.58 1.18 1.40 1.41 1.09 2.26 1.85 2.05 2.40 1.34 1.42 1.60 1.71 1.74 1.68 1.39 1.63 2.14 2.36 3.24 3.64 2.65 1.70 1.76 2.47 2.90 2.50 2.13
0.96 1.15 1.45 1.93 1.97 2.02 2.42 2.90 2.88 2.88 2.26 2.71 2.81 3.84 4.00 4.10 3.69 3.30 3.65 2.67 2.84 2.32 1.80 1.72 1.45 1.68 1.46 1.36 0.96 0.92 1.62 2.79 2.43 2.28 2.43 2.64 2.49 4.44 4.13 1.84 1.23 1.70 1.19 1.28 1.25 1.31 0.73 0.51 0.61 1.12 1.03 1.50 1.77 1.57 1.55 2.00 1.84 1.79 1.52 1.81 1.72 2.33 3.70 2.03 2.40 2.04 1.52 1.70 1.67 2.03 2.08 1.68 1.63 1.83 1.74 2.17 2.41 2.81 2.76 2.50 2.22 2.17 2.20 2.13 2.39
1.09 1.05 1.12 0.89 1.24 1.31 1.38 2.06 3.47 2.16 2.31 2.13 2.17 2.62 1.91 2.10 2.41 2.87 2.94 3.27 3.02 3.01 1.86 1.73 2.02 3.15 2.80 2.39 2.21 2.18 2.52 1.94 3.04 4.88 4.24 3.01 2.19 2.71 2.38 2.59 1.75 1.36 1.36 1.29 0.97 0.55 0.52 0.61 1.03 1.10 1.02 1.87 2.37 1.60 1.50 1.55 1.78 2.03 2.20 2.84 4.26 6.21 2.69 1.97 2.40 2.86 1.93 1.86 1.93 2.59 2.47 2.73 2.01 1.97 2.46 2.94 2.10 2.23 2.88 3.60 2.96 2.57 2.33 2.15 2.04
0.86 0.94 1.02 0.94 1.17 1.31 1.16 1.64 1.97 2.71 2.59 2.89 2.51 2.51 2.29 2.49 2.12 2.14 2.07 2.46 2.86 3.59 4.32 3.59 3.54 3.48 3.09 3.03 2.14 2.95 2.62 2.71 2.22 1.33 1.08 1.42 1.56 1.66 2.36 2.32 1.87 1.70 1.45 1.20 1.09 1.15 1.50 1.72 1.56 2.12 2.19 2.29 2.13 2.47 1.86 1.72 1.78 2.57 2.94 3.23 5.28 5.04 2.82 2.55 2.99 3.52 2.27 2.08 2.47 2.64 1.99 2.08 1.88 2.17 2.57 2.57 2.11 2.69 3.11 2.82 2.90 2.40 2.47 2.54 2.62
1.33 1.72 1.87 0.91 0.97 1.61 1.55 1.85 1.72 2.46 2.93 2.05 1.44 1.85 1.95 2.64 2.65 2.92 3.71 3.39 2.74 2.55 2.40 3.05 4.00 4.43 3.86 3.82 3.28 2.48 2.05 2.54 2.50 2.95 2.30 1.27 1.17 1.53 1.53 1.31 1.63 1.46 2.41 1.36 1.64 1.77 1.51 1.74 1.90 1.71 1.54 2.57 2.11 1.96 2.21 2.17 1.74 1.84 2.61 3.36 6.30 4.35 3.07 3.11 2.92 3.29 3.28 2.29 1.93 1.60 1.39 1.28 1.79 3.00 3.48 3.31 3.16 2.44 2.10 2.40 2.70 2.68 2.66 2.48 3.02
1.94 1.92 1.25 0.86 0.88 1.17 1.44 1.92 1.49 1.05 1.26 1.27 1.34 1.28 1.57 1.39 1.28 1.48 2.28 2.69 2.77 2.93 2.84 3.33 2.81 3.35 2.87 2.50 2.28 2.68 3.77 3.49 2.88 2.09 2.42 3.24 2.39 1.88 1.68 1.67 1.35 3.01 1.80 1.45 1.56 1.94 1.71 1.48 1.41 1.61 1.50 2.57 3.43 3.17 2.38 1.95 1.95 1.91 3.69 4.61 5.74 3.65 2.79 2.82 2.49 2.01 2.01 1.95 2.44 2.20 2.08 2.17 2.77 3.13 2.50 2.77 3.55 3.45 3.16 2.81 2.47 2.74 3.72 4.59 4.67
2.90 2.34 2.18 1.59 1.53 1.55 1.94 1.56 1.13 1.28 1.14 1.73 1.99 1.59 1.39 1.77 2.06 1.62 1.51 1.36 1.70 1.33 1.73 1.57 2.47 2.48 2.55 2.31 1.90 1.96 4.34 2.77 3.07 2.92 2.42 3.07 3.31 3.11 2.75 1.72 1.37 1.46 2.01 2.42 2.18 1.98 1.65 1.87 1.95 1.58 1.73 2.75 3.45 3.31 2.41 1.45 1.72 2.58 2.78 3.82 5.11 3.86 3.34 2.86 2.50 3.11 3.02 2.37 1.97 2.43 2.76 2.93 2.68 3.83 4.90 3.44 3.17 3.29 3.43 3.76 4.07 4.30 4.09 4.15 3.91
2.11 2.74 2.97 3.07 3.40 3.31 2.31 2.43 2.18 3.04 1.79 1.81 2.03 1.14 1.39 2.62 2.89 3.07 2.89 2.58 2.20 1.69 1.17 1.84 2.03 2.25 2.34 1.94 1.91 1.52 1.47 1.61 2.17 2.41 2.54 2.47 2.83 3.24 3.40 2.73 2.02 2.10 2.03 1.86 1.66 2.07 1.68 1.64 1.84 2.05 2.43 2.17 2.49 4.57 4.83 3.89 2.87 2.61 3.22 5.55 4.66 2.92 2.93 2.78 2.74 2.24 2.83 3.24 3.56 3.45 3.36 3.11 3.13 3.83 3.81 4.77 4.05 3.06 3.46 4.10 3.64 3.39 4.28 4.17 4.23
1.37 2.38 2.97 2.51 2.36 2.86 3.53 3.72 3.64 3.79 2.17 2.03 1.91 2.41 3.09 2.73 1.96 1.99 2.90 2.64 2.64 2.34 2.23 2.48 2.81 1.94 2.14 2.13 1.66 1.33 1.23 1.80 1.91 2.33 2.65 2.33 2.43 2.15 2.54 3.33 3.17 3.18 3.31 3.31 3.01 3.10 3.20 2.92 2.25 2.83 3.04 2.72 3.05 4.45 4.57 4.56 5.93 5.69 4.02 3.62 3.66 3.19 2.74 2.83 3.42 3.30 3.43 3.39 2.86 3.43 3.94 4.46 4.21 3.55 3.15 3.02 3.20 4.12 3.30 2.94 2.80 2.94 2.47 2.67 3.19
1.72 1.84 2.52 2.42 2.19 1.89 2.45 2.46 1.63 2.04 2.09 1.75 1.63 1.71 2.63 3.06 2.57 1.76 1.48 1.72 1.39 1.11 1.17 1.56 2.00 2.04 1.87 1.71 1.39 1.52 1.92 2.55 3.25 3.46 3.12 2.35 2.46 2.12 2.42 2.88 2.79 2.17 2.42 2.72 2.22 1.97 1.99 2.62 2.91 2.64 2.62 2.76 3.41 3.85 5.40 4.50 4.52 4.82 5.07 4.35 4.05 4.47 5.02 4.20 3.55 2.95 3.48 4.44 4.36 4.09 3.67 4.19 3.21 2.54 2.03 1.75 1.94 2.25 2.29 2.07 2.58 2.24 2.23 2.39 2.24
1.31 1.48 2.04 2.33 2.25 1.98 2.30 2.89 3.11 2.99 2.76 2.92 3.18 2.96 3.26 3.05 3.00 3.21 2.92 3.30 2.19 1.41 1.21 1.05 1.71 1.70 1.54 1.42 1.70 1.43 2.39 3.25 3.07 1.94 2.34 2.80 2.10 2.71 3.03 4.03 3.18 3.02 3.19 3.20 2.30 1.60 2.01 2.43 2.38 1.86 1.60 2.19 2.39 3.31 4.06 4.92 3.65 4.28 4.02 4.06 4.04 4.07 3.54 3.09 3.30 4.00 4.30 4.21 4.93 3.89 2.49 1.45 1.37 1.49 1.49 1.51 1.51 1.69 1.89 1.89 1.88 2.12 2.71 3.24 3.17
1.67 1.63 1.50 1.58 1.69 1.35 1.43 2.03 2.59 1.92 2.30 3.02 2.55 1.73 1.35 2.00 1.47 1.97 2.77 3.25 2.37 1.69 1.62 2.03 1.82 2.26 2.46 2.07 2.52 2.24 3.10 3.74 3.38 2.42 1.92 2.87 3.37 2.97 3.02 2.52 2.72 3.15 2.93 2.84 2.01 2.37 2.35 2.60 2.34 2.73 1.89 2.30 2.71 2.70 3.38 3.97 5.00 3.63 3.24 2.79 2.41 2.18 2.04 1.99 1.73 1.96 2.43 2.38 2.89 3.26 2.63 1.88 1.77 1.64 1.65 1.76 1.89 1.85 1.85 2.28 1.94 2.24 2.74 3.39 3.06
1.69 1.50 1.64 1.64 1.39 1.57 1.76 1.64 1.88 1.80 1.82 1.98 2.38 3.30 3.58 2.73 3.05 2.94 2.83 2.71 2.71 2.98 2.93 3.17 3.58 3.85 4.01 4.15 3.43 3.79 4.51 3.79 3.39 3.68 2.94 3.02 3.24 2.97 3.06 2.82 2.46 2.51 2.22 2.16 2.31 1.82 1.57 1.75 2.82 2.91 2.04 1.74 2.11 2.28 2.67 2.25 3.33 3.87 3.24 2.35 2.94 1.85 1.92 2.41 2.47 2.81 2.58 2.14 1.49 1.60 1.53 1.72 1.64 1.55 1.59 1.93 2.05 1.66 1.95 2.18 2.54 2.62 3.19 2.92 2.20
1.16 1.19 1.05 1.05 1.36 1.71 2.13 1.84 2.37 2.10 2.09 2.23 2.14 2.21 2.07 1.83 1.51 1.50 1.75 2.33 2.56 2.74 2.38 3.08 4.19 4.11 5.00 4.68 4.40 4.56 4.00 3.14 3.30 3.80 4.15 3.65 3.62 3.19 3.12 2.62 1.85 1.90 2.42 2.68 2.69 2.66 3.34 3.85 4.61 2.37 1.48 2.76 4.02 3.40 3.81 2.57 2.44 3.05 3.90 2.84 1.57 0.86 0.81 0.76 0.78 0.85 1.01 1.25 1.29 1.12 1.06 1.21 1.23 1.83 1.64 1.73 1.84 1.66 1.97 1.70 1.84 1.87 1.41 2.09 2.56
1.11 1.54 1.32 1.76 2.09 1.85 1.75 1.52 1.62 1.98 2.61 2.79 2.80 2.73 2.82 2.60 2.93 2.68 2.29 2.16 2.28 3.52 3.47 3.75 3.50 3.34 3.34 3.31 3.51 3.88 4.14 3.59 3.86 4.19 5.23 4.95 4.16 3.28 2.65 2.48 2.13 2.43 3.07 3.95 3.75 3.33 2.68 1.90 2.10 2.49 2.68 2.95 2.70 3.11 2.74 2.82 2.37 2.05 1.56 1.26 1.37 1.20 0.82 0.69 0.61 0.67 1.09 0.85 0.95 1.01 0.89 1.06 0.98 1.08 1.23 1.27 0.94 0.99 1.22 1.14 1.07 1.51 1.82 2.15 1.85
0.70 0.71 0.73 0.92 1.11 1.60 1.47 1.34 1.49 1.70 1.78 1.88 1.95 2.13 2.20 1.93 2.98 4.10 3.18 2.91 2.29 2.33 2.60 2.64 2.77 2.61 3.07 3.52 3.69 4.26 3.70 3.61 3.99 3.07 3.96 4.93 4.74 4.24 3.38 2.94 3.19 3.17 3.21 3.30 3.26 3.02 3.12 2.70 2.38 2.69 2.74 2.87 2.73 1.94 1.37 1.57 1.67 1.70 1.12 1.03 0.94 0.73 0.60 0.51 0.45 0.28 0.46 0.74 0.88 1.02 0.98 0.87 0.99 1.06 1.08 0.97 0.86 0.82 0.80 0.84 1.14 1.36 1.56 1.46 1.52